Simultaneous Nadir Overpasses (SNOs) Predictions

Prediction of SNOs between GOES-14 and AQUA Satellite Orbit:

Table of predicted SNOs for the next 14.0 days since TLE Epoch: 9/16/2023
Index Date Time (GOES-14) GOES-14 Lat,Lon AQUA Lat,Lon Distance(km) Time Diff (sec)
1 09/16/2023 20:56:08 -0.35,-108.52 0.32,-105.29 366.93 80
2 09/17/2023 09:14:08 0.34,-108.61 0.71,-110.30 192.86 80
3 09/19/2023 09:02:16 0.34,-108.61 -0.04,-106.76 210.47 80
4 09/19/2023 21:20:24 -0.32,-108.52 -1.00,-111.80 372.48 80
5 09/21/2023 21:08:31 -0.32,-108.51 -0.25,-108.24 30.46 80
6 09/23/2023 20:53:57 -0.32,-108.50 0.47,-104.69 433.19 80
7 09/24/2023 09:11:57 0.30,-108.58 0.52,-109.70 126.55 80
8 09/26/2023 09:00:03 0.30,-108.57 -0.25,-106.15 276.43 80
9 09/26/2023 21:18:09 -0.27,-108.48 -0.87,-111.17 306.76 80
10 09/28/2023 21:06:14 -0.27,-108.47 -0.11,-107.61 97.15 80
11 09/29/2023 09:24:12 0.25,-108.56 1.14,-112.62 462.04 80
